Date String (YYYY-MM-DD hh:mm:ss) UTC,Instrument flags,absolute air pressure of the measurement (hPa),sample flow rate (lpm),inlet stack bypass flow (lpm),air temperature of the measurement (°C),ambient temperature measured by the external sensor (°C),aerosol sample conditioner tube jacket temperature (°C),OPC LED temperature (°C),internal box temperature (°C),relative humidity of the measurement (%),span deviation,mass concentration of particles derived from Lorenz-Mie calculation of OPC scattering (μg/m³),mass concentration of particles derived from Lorenz-Mie calculation of OPC scattering (μg/m³),mass concentration of particles derived from Lorenz-Mie calculation of OPC scattering (μg/m³)
DateTimeUTC,F1_M11,P_M11,Q1_M11,Q2_M11,T1_M11,T2_M11,T3_M11,T4_M11,T5_M11,U1_M11,ZSPAN_M11,X0_M11,X2_M11,X1_M11
2024-05-14 00:00:00,SystemResetWarning,0824.9,5.00,000.00,024.2,023.5,000.0,032.2,026.1,026.6,0000.0,0008.30,0004.21,0003.66
2024-05-14 00:01:00,SystemResetWarning,0824.9,5.00,000.00,024.2,023.7,000.0,032.2,026.2,025.9,0000.0,0008.37,0004.26,0003.69
2024-05-14 00:02:00,SystemResetWarning,0825.0,5.01,000.00,024.3,023.9,000.0,032.2,026.3,027.9,0000.0,0008.83,0004.30,0003.73
2024-05-14 00:03:00,SystemResetWarning,0825.0,5.00,000.00,024.4,024.0,000.0,032.3,026.4,026.3,0000.0,0010.08,0004.35,0003.74
2024-05-14 00:04:00,SystemResetWarning,0825.0,4.99,000.00,024.5,024.2,000.0,032.3,026.5,025.7,0000.0,0009.79,0004.36,0003.76
2024-05-14 00:05:00,SystemResetWarning,0825.0,4.99,000.00,024.5,023.4,000.0,032.4,026.1,025.7,0000.0,0010.10,0004.34,0003.77
2024-05-14 00:06:00,SystemResetWarning,0824.9,5.00,000.00,024.2,021.5,000.0,032.5,025.0,026.3,0000.0,0010.18,0004.36,0003.80
2024-05-14 00:07:00,SystemResetWarning,0824.9,5.01,000.00,023.9,021.0,000.0,032.5,024.7,027.0,0000.0,0010.07,0004.39,0003.82
2024-05-14 00:08:00,SystemResetWarning,0824.9,5.00,000.00,023.8,021.5,000.0,032.4,024.9,026.5,0000.0,0009.97,0004.42,0003.84
2024-05-14 00:09:00,SystemResetWarning,0825.0,4.99,000.00,023.8,021.9,000.0,032.3,025.1,026.7,0000.0,0010.33,0004.40,0003.85
2024-05-14 00:10:00,SystemResetWarning,0825.0,5.00,000.00,023.9,022.3,000.0,032.2,025.4,027.0,0000.0,0010.42,0004.38,0003.84
2024-05-14 00:11:00,SystemResetWarning,0825.0,5.01,000.00,023.9,022.7,000.0,032.2,025.6,027.0,0000.0,0010.84,0004.40,0003.84
2024-05-14 00:12:00,SystemResetWarning,0825.0,5.01,000.00,024.0,023.0,000.0,032.2,025.8,026.6,0000.0,0011.12,0004.42,0003.84
2024-05-14 00:13:00,SystemResetWarning,0825.0,4.99,000.00,024.1,023.2,000.0,032.2,026.0,026.1,0000.0,0010.96,0004.40,0003.83
2024-05-14 00:14:00,SystemResetWarning,0825.0,4.99,000.00,024.2,023.5,000.0,032.2,026.1,025.5,0000.0,0009.44,0004.37,0003.84
2024-05-14 00:15:00,SystemResetWarning,0825.1,4.99,000.00,024.3,023.7,000.0,032.2,026.2,025.5,0000.0,0009.54,0004.37,0003.84
2024-05-14 00:16:00,SystemResetWarning,0825.1,5.01,000.00,024.4,023.8,000.0,032.3,026.3,024.4,0000.0,0009.55,0004.38,0003.84
2024-05-14 00:17:00,SystemResetWarning,0825.1,5.01,000.00,024.4,024.0,000.0,032.3,026.4,024.8,0000.0,0009.55,0004.38,0003.85
2024-05-14 00:18:00,SystemResetWarning,0825.1,4.99,000.00,024.5,024.1,000.0,032.4,026.5,025.8,0000.0,0009.62,0004.38,0003.86
2024-05-14 00:19:00,SystemResetWarning,0825.1,4.99,000.00,024.5,023.1,000.0,032.5,025.9,025.8,0000.0,0009.50,0004.33,0003.84
2024-05-14 00:20:00,SystemResetWarning,0825.1,5.00,000.00,024.1,021.2,000.0,032.5,024.9,025.1,0000.0,0009.29,0004.31,0003.83
2024-05-14 00:21:00,SystemResetWarning,0825.1,5.01,000.00,023.9,021.1,000.0,032.5,024.8,025.5,0000.0,0008.72,0004.28,0003.82
2024-05-14 00:22:00,SystemResetWarning,0825.1,5.01,000.00,023.8,021.5,000.0,032.4,025.0,025.8,0000.0,0008.99,0004.30,0003.83
2024-05-14 00:23:00,SystemResetWarning,0825.1,5.00,000.00,023.8,021.9,000.0,032.3,025.2,025.8,0000.0,0008.77,0004.29,0003.83
2024-05-14 00:24:00,SystemResetWarning,0825.1,5.00,000.00,023.9,022.3,000.0,032.2,025.4,025.8,0000.0,0009.27,0004.30,0003.82
2024-05-14 00:25:00,SystemResetWarning,0825.1,5.00,000.00,024.0,022.7,000.0,032.2,025.6,025.4,0000.0,0009.77,0004.35,0003.81
2024-05-14 00:26:00,SystemResetWarning,0825.1,5.00,000.00,024.0,023.0,000.0,032.2,025.9,025.0,0000.0,0009.67,0004.34,0003.80
2024-05-14 00:27:00,SystemResetWarning,0825.1,5.01,000.00,024.1,023.3,000.0,032.2,026.0,025.9,0000.0,0009.39,0004.36,0003.79
2024-05-14 00:28:00,SystemResetWarning,0825.1,5.00,000.00,024.2,023.5,000.0,032.2,026.1,025.8,0000.0,0009.28,0004.36,0003.77
2024-05-14 00:29:00,SystemResetWarning,0825.1,5.00,000.00,024.3,023.7,000.0,032.2,026.2,026.2,0000.0,0009.72,0004.35,0003.77
2024-05-14 00:30:00,SystemResetWarning,0825.1,4.99,000.00,024.4,023.9,000.0,032.3,026.3,025.9,0000.0,0009.75,0004.34,0003.76
2024-05-14 00:31:00,SystemResetWarning,0825.1,5.00,000.00,024.5,024.0,000.0,032.3,026.4,025.7,0000.0,0009.79,0004.35,0003.76
2024-05-14 00:32:00,SystemResetWarning,0825.1,4.99,000.00,024.6,024.1,000.0,032.4,026.5,025.9,0000.0,0010.04,0004.37,0003.76
2024-05-14 00:33:00,SystemResetWarning,0825.1,5.00,000.00,024.5,022.9,000.0,032.5,025.8,026.1,0000.0,0009.69,0004.34,0003.75
2024-05-14 00:34:00,SystemResetWarning,0825.0,5.01,000.00,024.1,021.1,000.0,032.5,024.9,026.3,0000.0,0009.81,0004.31,0003.76
2024-05-14 00:35:00,SystemResetWarning,0824.9,5.02,000.00,023.8,021.2,000.0,032.5,024.8,026.5,0000.0,0009.83,0004.32,0003.77
2024-05-14 00:36:00,SystemResetWarning,0825.0,5.00,000.00,023.8,021.6,000.0,032.4,025.0,026.6,0000.0,0009.85,0004.30,0003.79
2024-05-14 00:37:00,SystemResetWarning,0825.0,4.98,000.00,023.8,022.0,000.0,032.3,025.3,027.2,0000.0,0010.29,0004.33,0003.81
2024-05-14 00:38:00,SystemResetWarning,0825.0,5.00,000.00,023.9,022.4,000.0,032.2,025.5,026.7,0000.0,0010.24,0004.34,0003.83
2024-05-14 00:39:00,SystemResetWarning,0825.0,5.01,000.00,024.0,022.8,000.0,032.2,025.7,026.0,0000.0,0010.20,0004.35,0003.84
2024-05-14 00:40:00,SystemResetWarning,0825.1,5.01,000.00,024.0,023.1,000.0,032.2,025.9,025.4,0000.0,0009.88,0004.37,0003.83
2024-05-14 00:41:00,SystemResetWarning,0825.1,4.99,000.00,024.1,023.3,000.0,032.2,026.0,025.8,0000.0,0011.12,0004.43,0003.84
2024-05-14 00:42:00,SystemResetWarning,0825.1,5.00,000.00,024.2,023.5,000.0,032.2,026.1,025.3,0000.0,0012.91,0004.46,0003.84
2024-05-14 00:43:00,SystemResetWarning,0825.1,5.00,000.00,024.3,023.7,000.0,032.3,026.3,024.6,0000.0,0013.13,0004.47,0003.83
2024-05-14 00:44:00,SystemResetWarning,0825.1,5.00,000.00,024.4,023.9,000.0,032.3,026.3,025.0,0000.0,0013.32,0004.47,0003.82
2024-05-14 00:45:00,SystemResetWarning,0825.1,5.00,000.00,024.5,024.1,000.0,032.4,026.4,025.3,0000.0,0014.14,0004.47,0003.80
2024-05-14 00:46:00,SystemResetWarning,0825.1,5.00,000.00,024.6,024.2,000.0,032.4,026.5,025.3,0000.0,0014.65,0004.44,0003.78
2024-05-14 00:47:00,SystemResetWarning,0825.0,4.98,000.00,024.6,023.7,000.0,032.5,026.2,025.5,0000.0,0014.11,0004.42,0003.76
2024-05-14 00:48:00,SystemResetWarning,0824.9,5.00,000.00,024.3,021.8,000.0,032.6,025.1,026.2,0000.0,0013.80,0004.39,0003.72
2024-05-14 00:49:00,SystemResetWarning,0824.9,5.01,000.00,023.9,021.1,000.0,032.6,024.7,026.1,0000.0,0013.87,0004.40,0003.71
2024-05-14 00:50:00,SystemResetWarning,0824.9,5.01,000.00,023.8,021.4,000.0,032.5,024.9,026.3,0000.0,0014.22,0004.38,0003.71
2024-05-14 00:51:00,SystemResetWarning,0824.9,4.99,000.00,023.8,021.8,000.0,032.4,025.1,026.1,0000.0,0014.25,0004.35,0003.71
2024-05-14 00:52:00,SystemResetWarning,0824.9,5.00,000.00,023.9,022.2,000.0,032.3,025.4,026.8,0000.0,0012.91,0004.29,0003.71
2024-05-14 00:53:00,SystemResetWarning,0824.9,5.00,000.00,023.9,022.6,000.0,032.2,025.6,026.6,0000.0,0011.12,0004.25,0003.70
2024-05-14 00:54:00,SystemResetWarning,0824.9,5.00,000.00,024.0,022.9,000.0,032.2,025.8,026.3,0000.0,0010.76,0004.28,0003.71
2024-05-14 00:55:00,SystemResetWarning,0824.9,4.99,000.00,024.1,023.2,000.0,032.2,025.9,026.3,0000.0,0010.95,0004.27,0003.71
2024-05-14 00:56:00,SystemResetWarning,0824.9,5.00,000.00,024.2,023.4,000.0,032.2,026.1,026.2,0000.0,0010.05,0004.25,0003.70
2024-05-14 00:57:00,SystemResetWarning,0824.9,5.00,000.00,024.3,023.7,000.0,032.3,026.2,025.9,0000.0,0009.70,0004.27,0003.71
2024-05-14 00:58:00,SystemResetWarning,0824.9,5.00,000.00,024.4,023.8,000.0,032.3,026.3,025.8,0000.0,0010.51,0004.27,0003.71
2024-05-14 00:59:00,SystemResetWarning,0824.9,5.01,000.00,024.4,024.0,000.0,032.3,026.4,025.6,0000.0,0011.51,0004.28,0003.72
